Regional Weather Roundup
Issued by NWS

Home | Current Version | Previous Version | Text Only | Print | Product List | Glossary On
Versions: 1 2 3 4 5 6 7 8 9 10 11 12 13 14 15 16 17 18 19 20 21 22 23 24 25 26 27 28 29 30 31 32 33 34 35 36 37 38 39 40 41 42 43 44 45 46 47 48 49 50
000
ASUS43 KDTX 181710
RWRMI
MICHIGAN HOURLY REGIONAL WEATHER ROUNDUP
NATIONAL WEATHER SERVICE DETROIT/PONTIAC MI
100 PM EDT FRI APR 18 2014

NOTE: "FAIR" INDICATES FEW OR NO CLOUDS BELOW 12,000 FEET WITH NO
SIGNIFICANT WEATHER AND/OR OBSTRUCTION TO VISIBILITY.

MIZ047>049-052>055-059>063-066>070-074>076-081>083-181800-
SOUTHEAST LOWER MICHIGAN

CITY           SKY/WX    TMP DP  RH WIND       PRES   REMARKS
ADRIAN         CLOUDY    59  41  51 W9G18     30.27S
ALMA           PTSUNNY   53  34  49 CALM      30.30S
ANN ARBOR      PTSUNNY   57  43  59 CALM      30.27S
BAD AXE        MOSUNNY   44  33  63 NE5       30.31R
DETROIT CITY   CLOUDY    58  41  53 SW6       30.27S
DETROIT        PTSUNNY   60  43  53 W7        30.28R
FLINT          PTSUNNY   55  40  56 CALM      30.29S
GROSSE ILE     MOSUNNY   57  43  58 S9        30.26S
HILLSDALE      PTSUNNY   59  41  49 W12       30.27S
HOWELL         CLOUDY    55  41  58 N3        30.27S

CITY           SKY/WX    TMP DP  RH WIND       PRES   REMARKS
JACKSON        PTSUNNY   59  41  51 VRB5      30.27S
LAMBERTVILLE   CLOUDY    61  41  48 W7        30.27F
LANSING        PTSUNNY   55  37  50 NW7       30.29S
LAPEER         NOT AVBL
MASON          PTSUNNY   55  39  54 W8        30.28S
MONROE         PTSUNNY   61  43  51 SE6       30.26S
MT. CLEMENS    CLOUDY    45  45 100 NE9       30.28R FOG
PONTIAC        PTSUNNY   51  43  74 NW3       30.28R
PORT HOPE        N/A     40  33  76 E3        30.30S
PORT HURON     CLOUDY    41  36  81 NE10      30.31S
TRI CITIES     MOSUNNY   52  35  52 VRB3      30.30S
YPSILANTI      PTSUNNY   63  43  48 SW13      30.28R
$$
MIZ043>046-050>051-056>058-064>065-071>073-077>080-181800-
SOUTHWEST LOWER MICHIGAN

CITY           SKY/WX    TMP DP  RH WIND       PRES   REMARKS
BATTLE CREEK   MOSUNNY   58  38  47 MISG      30.29S
BENTON HARBOR  SUNNY     43  36  76 N7        30.34R
BIG RAPIDS     MOSUNNY   51  34  52 NW6       30.29F
COLDWATER      MOSUNNY   58  38  47 W9        30.28S
HOLLAND        MOSUNNY   55  40  56 W10       30.33R
GRAND RAPIDS   PTSUNNY   57  38  48 NW14      30.30R
KALAMAZOO      MOSUNNY   60  36  40 CALM      30.29S
MARSHALL       PTSUNNY   58  38  49 CALM      30.28R
MUSKEGON       MOSUNNY   54  35  48 NW10      30.33R
$$
MIZ016>042-181800-
NORTHERN LOWER MICHIGAN

CITY           SKY/WX    TMP DP  RH WIND       PRES   REMARKS
ALPENA         CLOUDY    41  29  62 W10G18    30.31S
BEAVER ISLAND  CLOUDY    38  28  67 W8        30.36R
BELLAIRE       CLOUDY    38  27  63 NW9       30.36R
CADILLAC       CLOUDY    42  32  67 NW9       30.30S
CHARLEVOIX     CLOUDY    36  28  72 NW7       30.39S
FRANKFORT      CLOUDY    38  27  65 N6        30.38S
GAYLORD        CLOUDY    36  26  67 W10       30.30S
GRAYLING       CLOUDY    40  30  68 W10G17    30.32S
HARBOR SPRINGS CLOUDY    38  27  63 W3        30.34S
HOUGHTON LAKE  PTSUNNY   43  32  65 NW9       30.31R
MANISTEE       CLOUDY    39  27  60 NW13      30.38R
OSCODA         CLOUDY    42  32  67 E8G16     30.30S
PELLSTON       CLOUDY    38  25  59 NW12G24   30.34S
TRAVERSE CITY  CLOUDY    36  27  69 NE6       30.36R
$$
MIZ007>008-015-181800-
EASTERN UPPER MICHIGAN

CITY           SKY/WX    TMP DP  RH WIND       PRES   REMARKS
KINROSS        CLOUDY    36  30  80 W10       30.31S
MACKINAC ISLAN CLOUDY    33  29  83 W9G16     30.33S
NEWBERRY       CLOUDY    34  27  75 W8        30.32S
S. S. MARIE    CLOUDY    35  28  75 W8        30.31R
$$
MIZ004>006-011>014-085-181800-
CENTRAL UPPER MICHIGAN

CITY           SKY/WX    TMP DP  RH WIND       PRES   REMARKS
MANISTIQUE     CLOUDY    36  28  72 NW12G18   30.35R
ESCANABA       CLOUDY    39  21  48 W8        30.36S
MENOMINEE      PTSUNNY   39  25  56 CALM      30.37F
SAWYER-GWINN   CLOUDY    36  25  64 NW12      30.35R
$$
MIZ001>003-009>011-084-181800-
WESTERN UPPER MICHIGAN

CITY           SKY/WX    TMP DP  RH WIND       PRES   REMARKS
IRON MOUNTAIN  CLOUDY    36  23  59 N9        30.36R
HOUGHTON       PTSUNNY   33  26  75 NW10      30.38R
COPPER HARBOR    N/A     33  29  85 N13       30.39R
IRONWOOD       PTSUNNY   36  21  55 NW3       30.37S
$$

ABBREVIATIONS USED IN REMARKS
   TC - TEMPERATURE IN CELSIUS
  WCI - WIND CHILL INDEX
   HX - HEAT INDEX
  VSB - VISIBILITY




USA.gov is the U.S. government's official web portal to all federal, state and local government web resources and services.